FW8870 Weather Reports


Display with metric or nautical units.
time (UTC)temp
F
wind
direction
speed
MPH
gust
MPH
rain 1hr
in
rain 24hr
in
rain mn
in
humidity
%
barometer
mb
20260504050404 57 317 0.0 0.0 0.00 0.00 0.00 87 1011.3
20260504045900 57 317 0.0 0.0 0.00 0.00 0.00 88 1011.4
20260504045356 56 316 0.0 0.0 0.00 0.00 0.00 88 1011.4
20260504044853 57 316 0.0 0.0 0.00 0.00 0.00 90 1011.3
20260504044350 57 316 0.0 0.0 0.00 0.00 0.00 89 1011.4
20260504043848 57 305 0.0 0.0 0.00 0.00 0.00 88 1011.3
20260504043344 57 322 0.0 0.0 0.00 0.00 0.00 89 1011.6
20260504042842 58 322 0.0 0.0 0.00 0.00 0.00 89 1011.4
20260504042338 59 322 0.0 0.0 0.00 0.00 0.00 89 1011.3
20260504041834 59 322 0.0 0.0 0.00 0.00 0.00 88 1011.4
20260504041331 59 322 0.0 0.0 0.00 0.00 0.00 89 1011.5
20260504040827 59 322 0.0 0.0 0.00 0.00 0.00 88 1011.2
20260504040325 60 322 0.0 0.0 0.00 0.00 0.00 86 1011.3
20260504035820 60 321 0.0 0.0 0.00 0.00 0.00 84 1011.1
20260504035318 61 322 0.0 0.0 0.00 0.00 0.00 81 1011.2
20260504034815 61 322 0.0 0.0 0.00 0.00 0.00 81 1011.2
20260504034313 62 322 0.0 0.0 0.00 0.00 0.00 80 1011.3
20260504033809 63 322 0.0 0.0 0.00 0.00 0.00 77 1011.2
20260504033307 64 322 0.0 0.0 0.00 0.00 0.00 76 1011.0
20260504032803 65 322 0.0 0.0 0.00 0.00 0.00 73 1011.0
20260504032301 66 322 0.0 0.0 0.00 0.00 0.00 71 1010.8
20260504031757 67 321 0.0 0.0 0.00 0.00 0.00 68 1010.7
20260504031255 68 321 0.0 0.0 0.00 0.00 0.00 66 1010.8
20260504030751 68 321 0.0 0.0 0.00 0.00 0.00 65 1011.0
20260504030248 69 317 0.0 0.0 0.00 0.00 0.00 65 1010.7
20260504025744 69 324 0.0 0.0 0.00 0.00 0.00 66 1010.7
20260504025241 69 325 0.0 0.0 0.00 0.00 0.00 65 1011.1
20260504024738 70 318 0.0 0.0 0.00 0.00 0.00 63 1010.7
20260504024235 70 312 0.0 0.0 0.00 0.00 0.00 63 1011.0
20260504023732 71 332 0.0 0.0 0.00 0.00 0.00 62 1010.6
20260504023228 71 314 0.0 0.0 0.00 0.00 0.00 62 1010.7
20260504022724 71 319 0.0 0.0 0.00 0.00 0.00 63 1010.7
20260504022220 71 330 0.0 0.0 0.00 0.00 0.00 59 1011.0
20260504021718 72 333 0.0 0.0 0.00 0.00 0.00 60 1011.0
20260504021215 72 333 0.0 0.0 0.00 0.00 0.00 60 1011.2
20260504020712 72 328 0.0 0.0 0.00 0.00 0.00 60 1011.0
20260504020208 73 327 0.0 0.0 0.00 0.00 0.00 56 1011.0
20260504015704 73 316 0.0 0.0 0.00 0.00 0.00 53 1011.1
20260504015201 73 318 0.0 0.0 0.00 0.00 0.00 55 1011.2
20260504014656 73 304 0.0 0.0 0.00 0.00 0.00 56 1011.1
20260504014154 74 315 0.0 0.0 0.00 0.00 0.00 59 1011.3
20260504013651 76 316 0.0 0.0 0.00 0.00 0.00 53 1011.2
20260504013148 77 305 0.0 0.0 0.00 0.00 0.00 53 1011.0
20260504012645 78 283 0.0 0.0 0.00 0.00 0.00 53 1011.2
20260504012143 78 345 0.0 0.0 0.00 0.00 0.00 45 1011.4
20260504011639 78 293 0.0 0.0 0.00 0.00 0.00 53 1011.2
20260504011136 78 302 0.0 0.0 0.00 0.00 0.00 51 1011.2
20260504010632 79 301 0.0 0.0 0.00 0.00 0.00 53 1011.6
20260504010128 78 320 0.0 0.0 0.00 0.00 0.00 46 1011.5
20260504005625 78 319 0.0 0.0 0.00 0.00 0.00 48 1011.5
20260504005122 78 314 0.0 0.0 0.00 0.00 0.00 50 1011.5
20260504004620 78 4 0.0 0.0 0.00 0.00 0.00 53 1011.7
20260504004117 78 334 0.0 0.0 0.00 0.00 0.00 46 1011.7
20260504003613 79 311 0.0 0.0 0.00 0.00 0.00 54 1011.6
20260504003110 80 307 0.0 0.0 0.00 0.00 0.00 50 1011.6
20260504002607 81 314 0.0 0.0 0.00 0.00 0.00 47 1011.6
20260504002104 81 338 0.0 0.0 0.00 0.00 0.00 44 1011.8
20260504001602 82 252 0.0 0.0 0.00 0.00 0.00 44 1011.9
20260504001057 82 290 0.0 0.0 0.00 0.00 0.00 53 1011.8
20260504000555 82 305 0.0 0.0 0.00 0.00 0.00 49 1012.0
20260504000052 82 314 0.0 0.0 0.00 0.00 0.00 46 1012.1
20260503235550 82 290 0.0 0.0 0.00 0.00 0.00 48 1011.9
20260503235047 83 340 0.0 1.0 0.00 0.00 0.00 43 1012.0
20260503234545 82 326 0.0 0.0 0.00 0.00 0.00 45 1012.0
20260503234043 82 344 0.0 0.0 0.00 0.00 0.00 45 1011.9
20260503233539 81 237 0.0 0.0 0.00 0.00 0.00 48 1012.0
20260503233035 81 316 0.0 0.0 0.00 0.00 0.00 48 1012.1
20260503232532 81 315 0.0 0.0 0.00 0.00 0.00 49 1012.2
20260503232030 81 347 0.0 0.0 0.00 0.00 0.00 47 1011.9
20260503231527 82 285 0.0 0.0 0.00 0.00 0.00 52 1012.4
20260503231024 81 332 0.0 0.0 0.00 0.00 0.00 48 1012.3
20260503230520 82 338 0.0 0.0 0.00 0.00 0.00 50 1012.4
20260503230018 82 309 0.0 0.0 0.00 0.00 0.00 48 1012.6
20260503225515 81 297 0.0 0.0 0.00 0.00 0.00 48 1012.7
20260503225010 82 350 0.0 0.0 0.00 0.00 0.00 51 1012.7
20260503224508 82 302 1.0 3.0 0.00 0.00 0.00 47 1012.5
20260503224005 82 14 0.0 0.0 0.00 0.00 0.00 48 1012.8
20260503223503 82 315 0.0 0.0 0.00 0.00 0.00 55 1012.6
20260503222958 82 313 0.0 0.0 0.00 0.00 0.00 55 1012.7
20260503222457 82 298 0.0 1.0 0.00 0.00 0.00 50 1012.8
20260503221954 82 66 0.0 1.0 0.00 0.00 0.00 49 1013.0
20260503221453 82 297 0.0 0.0 0.00 0.00 0.00 47 1012.9
20260503220949 82 21 0.0 1.0 0.00 0.00 0.00 47 1012.9
20260503220445 82 262 0.0 0.0 0.00 0.00 0.00 47 1013.0
20260503215942 81 348 0.0 0.0 0.00 0.00 0.00 55 1013.2
20260503215439 82 7 0.0 0.0 0.00 0.00 0.00 46 1013.2
20260503214937 82 246 0.0 0.0 0.00 0.00 0.00 51 1013.3
20260503214435 82 313 0.0 0.0 0.00 0.00 0.00 47 1013.0
20260503213932 82 10 0.0 2.0 0.00 0.00 0.00 44 1013.4
20260503213430 82 323 0.0 0.0 0.00 0.00 0.00 40 1013.1
20260503212926 82 325 0.0 0.0 0.00 0.00 0.00 48 1013.5
20260503212424 81 290 0.0 0.0 0.00 0.00 0.00 41 1013.5
20260503211921 81 266 1.0 1.0 0.00 0.00 0.00 48 1013.3
20260503211418 80 336 1.0 2.0 0.00 0.00 0.00 43 1013.7
20260503210913 80 342 0.0 0.0 0.00 0.00 0.00 42 1013.6
20260503210410 80 330 0.0 0.0 0.00 0.00 0.00 48 1013.6
20260503205905 81 309 0.0 0.0 0.00 0.00 0.00 42 1013.6
20260503205402 81 312 0.0 0.0 0.00 0.00 0.00 45 1013.8
20260503204858 80 347 0.0 0.0 0.00 0.00 0.00 50 1014.2
20260503204356 81 81 0.0 1.0 0.00 0.00 0.00 44 1013.9
20260503203853 81 329 0.0 0.0 0.00 0.00 0.00 45 1014.0
20260503203350 80 87 1.0 2.0 0.00 0.00 0.00 43 1014.2
20260503202847 80 9 0.0 0.0 0.00 0.00 0.00 49 1014.3
20260503202345 81 333 0.0 1.0 0.00 0.00 0.00 43 1014.2
20260503201843 81 348 0.0 0.0 0.00 0.00 0.00 45 1014.3
20260503201340 80 190 1.0 2.0 0.00 0.00 0.00 43 1014.6
20260503200838 80 56 0.0 0.0 0.00 0.00 0.00 45 1014.6
20260503200333 80 175 0.0 0.0 0.00 0.00 0.00 48 1014.8
20260503195831 80 262 0.0 0.0 0.00 0.00 0.00 48 1014.6
20260503195327 80 325 0.0 0.0 0.00 0.00 0.00 47 1014.7
20260503194824 79 18 0.0 0.0 0.00 0.00 0.00 45 1014.7
20260503194320 79 135 0.0 0.0 0.00 0.00 0.00 44 1014.8
20260503193816 79 157 0.0 0.0 0.00 0.00 0.00 53 1014.8
20260503193313 80 342 0.0 0.0 0.00 0.00 0.00 48 1015.0
20260503192809 78 104 1.0 2.0 0.00 0.00 0.00 44 1015.0
20260503192305 78 205 0.0 0.0 0.00 0.00 0.00 49 1015.0
20260503191801 77 139 1.0 2.0 0.00 0.00 0.00 50 1015.1
20260503191258 78 328 0.0 1.0 0.00 0.00 0.00 48 1015.0
20260503190754 77 335 0.0 0.0 0.00 0.00 0.00 51 1015.1
20260503190251 76 86 0.0 1.0 0.00 0.00 0.00 46 1015.1
20260503185748 76 307 0.0 0.0 0.00 0.00 0.00 54 1015.3
20260503185244 77 259 0.0 1.0 0.00 0.00 0.00 46 1015.3
20260503184738 76 349 0.0 0.0 0.00 0.00 0.00 50 1015.4
20260503184235 76 314 0.0 0.0 0.00 0.00 0.00 49 1015.4
20260503183732 75 6 0.0 0.0 0.00 0.00 0.00 54 1015.5
20260503183229 75 334 0.0 0.0 0.00 0.00 0.00 47 1015.4
20260503182727 75 300 0.0 0.0 0.00 0.00 0.00 55 1015.6
20260503182226 74 58 1.0 2.0 0.00 0.00 0.00 52 1015.7
20260503181722 74 305 0.0 0.0 0.00 0.00 0.00 54 1015.9
20260503181219 73 356 0.0 0.0 0.00 0.00 0.00 56 1015.8
20260503180715 73 301 0.0 0.0 0.00 0.00 0.00 54 1016.1
20260503180214 72 339 0.0 0.0 0.00 0.00 0.00 58 1016.0
20260503175710 73 350 0.0 0.0 0.00 0.00 0.00 58 1016.1
20260503175208 73 337 0.0 0.0 0.00 0.00 0.00 56 1016.2
20260503174704 72 301 0.0 0.0 0.00 0.00 0.00 57 1016.4
20260503174201 72 271 0.0 0.0 0.00 0.00 0.00 58 1016.4
20260503173656 71 341 0.0 0.0 0.00 0.00 0.00 62 1016.3
20260503173153 71 350 0.0 0.0 0.00 0.00 0.00 57 1016.2
20260503172650 71 345 0.0 0.0 0.00 0.00 0.00 61 1016.5
20260503172147 71 291 0.0 0.0 0.00 0.00 0.00 61 1016.5
20260503171643 70 342 0.0 0.0 0.00 0.00 0.00 64 1016.6
20260503171141 69 353 1.0 2.0 0.00 0.00 0.00 64 1016.6
20260503170638 68 83 2.0 3.0 0.00 0.00 0.00 61 1016.7
20260503170135 68 21 0.0 0.0 0.00 0.00 0.00 65 1016.8
20260503150526 57 352 0.0 0.0 0.00 0.00 0.00 87 1017.7
20260503131419 49 322 0.0 0.0 0.00 0.00 0.00 97 1017.1
20260503130916 50 325 0.0 0.0 0.00 0.00 0.00 96 1017.1
20260503130414 50 308 0.0 0.0 0.00 0.00 0.00 95 1017.0
20260503110817 51 347 0.0 0.0 0.00 0.00 0.00 95 1017.1
20260503110314 51 334 0.0 0.0 0.00 0.00 0.00 96 1017.0
20260503100240 51 335 0.0 0.0 0.00 0.00 0.00 98 1016.9
20260503090200 53 329 0.0 0.0 0.00 0.00 0.00 94 1016.9
20260503081630 55 176 0.0 0.0 0.00 0.00 0.00 89 1017.0
20260503081127 55 293 0.0 0.0 0.00 0.00 0.00 88 1016.8
20260503080623 55 332 0.0 0.0 0.00 0.00 0.00 87 1016.6
20260503080120 56 343 0.0 0.0 0.00 0.00 0.00 86 1016.8
20260503072557 56 323 0.0 0.0 0.00 0.00 0.00 88 1016.5
20260503072054 57 341 0.0 0.0 0.00 0.00 0.00 86 1016.5
20260503071551 57 328 0.0 0.0 0.00 0.00 0.00 86 1016.7
20260503071048 58 179 0.0 0.0 0.00 0.00 0.00 84 1016.6
20260503070544 59 6 0.0 0.0 0.00 0.00 0.00 81 1016.7